Location: Добрич
(43.6638°N, 27.9002°E)
Time: 04:41:44
(UTC+03:00)

ISS - Pass Details

Date: 19 April 2026
Orbit: 414 x 424 km, 51.6° (Epoch: 15 May)

Event Time Altitude Azimuth Distance (km) Brightness Sun altitude
Exits shadow 05:40:36 - 225° (SW) 1,616 -1.4 -7.4°
Reaches altitude 10° 05:40:54 10° 224° (SW) 1,492 -1.5 -7.4°
Maximum altitude 05:44:12 61° 144° (SE) 482 -3.4 -6.8°
Drops below altitude 10° 05:47:33 10° 63° (ENE) 1,507 0.9 -6.3°
Sets 05:49:41 0° 60° (ENE) 2,377 2.4 -5.9°
